TimeCST,TemperatureF,Dew PointF,Humidity,Sea Level PressureIn,VisibilityMPH,Wind Direction,Wind SpeedMPH,Gust SpeedMPH,PrecipitationIn,Events,Conditions,WindDirDegrees,DateUTC
12:36 AM,66.2,64.4,94,29.80,4.0,Calm,Calm,-,N/A,,Overcast,0,2013-02-13 06:36:00
12:53 AM,66.9,64.9,93,29.80,4.0,SW,3.5,-,N/A,,Overcast,220,2013-02-13 06:53:00
1:21 AM,66.2,64.4,94,29.80,5.0,Variable,3.5,-,N/A,,Mostly Cloudy,0,2013-02-13 07:21:00
1:53 AM,66.0,64.0,93,29.82,8.0,West,3.5,-,N/A,,Scattered Clouds,280,2013-02-13 07:53:00
2:17 AM,64.4,60.8,88,29.82,10.0,West,4.6,-,N/A,,Mostly Cloudy,280,2013-02-13 08:17:00
2:26 AM,64.4,60.8,88,29.83,10.0,WNW,5.8,-,N/A,,Scattered Clouds,300,2013-02-13 08:26:00
2:53 AM,63.0,57.9,84,29.84,10.0,NW,4.6,-,N/A,,Partly Cloudy,310,2013-02-13 08:53:00
3:53 AM,60.1,55.0,83,29.86,10.0,WNW,3.5,-,N/A,,Clear,300,2013-02-13 09:53:00
4:53 AM,57.0,54.0,89,29.89,10.0,Calm,Calm,-,N/A,,Clear,0,2013-02-13 10:53:00
5:53 AM,55.9,48.9,77,29.89,10.0,WNW,6.9,-,N/A,,Scattered Clouds,300,2013-02-13 11:53:00
6:53 AM,54.0,48.9,83,29.94,10.0,WNW,9.2,17.3,N/A,,Scattered Clouds,290,2013-02-13 12:53:00
7:53 AM,54.0,46.9,77,29.93,10.0,NW,8.1,-,N/A,,Clear,320,2013-02-13 13:53:00
8:53 AM,54.0,46.9,77,29.95,10.0,NW,11.5,18.4,N/A,,Clear,310,2013-02-13 14:53:00
9:53 AM,55.0,46.0,72,29.96,10.0,NNW,12.7,19.6,N/A,,Partly Cloudy,340,2013-02-13 15:53:00
10:53 AM,53.1,46.0,77,29.97,10.0,NNW,4.6,18.4,0.01,Rain,Light Rain,340,2013-02-13 16:53:00
11:43 AM,53.6,48.2,82,29.98,10.0,NW,3.5,-,0.00,,Overcast,310,2013-02-13 17:43:00
11:53 AM,53.1,48.9,86,29.99,10.0,Calm,Calm,-,0.00,,Overcast,0,2013-02-13 17:53:00
12:39 PM,51.8,46.4,82,29.97,6.0,NW,5.8,-,0.01,Rain,Light Rain,320,2013-02-13 18:39:00
12:53 PM,51.1,48.0,89,29.97,7.0,NW,3.5,-,0.02,Rain,Light Rain,320,2013-02-13 18:53:00
1:05 PM,51.8,48.2,88,29.98,5.0,North,5.8,-,0.02,Rain,Rain,350,2013-02-13 19:05:00
1:27 PM,48.2,44.6,87,29.97,6.0,NNW,9.2,17.3,0.06,Rain,Light Rain,330,2013-02-13 19:27:00
1:35 PM,48.2,44.6,87,29.95,4.0,North,10.4,-,0.08,Rain,Heavy Rain,350,2013-02-13 19:35:00
1:53 PM,48.0,45.0,89,29.97,3.0,NNW,8.1,-,0.13,Rain,Heavy Rain,340,2013-02-13 19:53:00
2:53 PM,48.0,45.0,89,29.97,10.0,NNW,5.8,-,0.14,Rain,Light Rain,330,2013-02-13 20:53:00
3:53 PM,48.9,46.0,90,30.00,10.0,Calm,Calm,-,0.02,,Partly Cloudy,0,2013-02-13 21:53:00
4:53 PM,48.9,46.0,90,30.00,10.0,Calm,Calm,-,N/A,,Clear,0,2013-02-13 22:53:00
5:53 PM,48.9,46.0,90,30.00,10.0,NNW,3.5,-,N/A,,Clear,340,2013-02-13 23:53:00
6:53 PM,48.9,46.0,90,30.01,10.0,Calm,Calm,-,N/A,,Clear,0,2013-02-14 00:53:00
7:53 PM,48.9,45.0,86,30.02,10.0,NNW,4.6,-,N/A,,Clear,340,2013-02-14 01:53:00
8:53 PM,48.9,43.0,80,30.06,10.0,NNW,6.9,-,N/A,,Clear,340,2013-02-14 02:53:00
9:53 PM,46.9,42.1,83,30.07,10.0,North,5.8,-,N/A,,Clear,350,2013-02-14 03:53:00
10:53 PM,44.1,39.9,85,30.07,10.0,NNW,3.5,-,N/A,,Clear,330,2013-02-14 04:53:00
11:53 PM,43.0,39.9,89,30.08,10.0,Calm,Calm,-,N/A,,Clear,0,2013-02-14 05:53:00